Date String (YYYY-MM-DD hh:mm:ss) UTC,Instrument flags,Ambient pressure (hPa),Sample flow (lpm),Bypass flow (lpm),Sample temperature (°C),Ambient temperature (°C),ASC tube jacket temperature (°C),LED temperature (°C),Box temperature (°C),Sample RH (%),Span deviation,Mass concentration (μg/m³),Mass concentration (μg/m³),Mass concentration (μg/m³)
DateTimeUTC,F1_M11,P_M11,Q1_M11,Q2_M11,T1_M11,T2_M11,T3_M11,T4_M11,T5_M11,U1_M11,ZSPAN_M11,X0_M11,X2_M11,X1_M11
2021-12-22 07:00:00,,0822.6,5.01,0.00,23.9,23.1,00.0,32.9,25.5,03.4,0000.0,0002.63,0000.64,0000.38
2021-12-22 07:01:00,,0822.6,5.01,0.00,23.9,23.1,00.0,32.9,25.5,03.4,0000.0,0002.69,0000.67,0000.38
2021-12-22 07:02:00,,0822.6,4.99,0.00,23.9,23.1,00.0,32.9,25.5,03.4,0000.0,0003.29,0000.71,0000.39
2021-12-22 07:03:00,,0822.6,5.00,0.00,23.8,23.1,00.0,32.9,25.5,03.4,0000.0,0004.46,0000.75,0000.40
2021-12-22 07:04:00,,0822.7,4.98,0.00,23.8,23.0,00.0,32.9,25.5,03.4,0000.0,0004.88,0000.77,0000.41
2021-12-22 07:05:00,,0822.7,5.02,0.00,23.8,23.0,00.0,32.9,25.5,03.4,0000.0,0004.66,0000.74,0000.40
2021-12-22 07:06:00,,0822.5,4.99,0.00,23.8,23.0,00.0,32.9,25.5,03.4,0000.0,0004.07,0000.72,0000.41
2021-12-22 07:07:00,,0822.4,5.01,0.00,23.8,23.0,00.0,32.9,25.5,03.4,0000.0,0004.11,0000.74,0000.42
2021-12-22 07:08:00,,0822.4,5.00,0.00,23.8,23.0,00.0,32.9,25.5,03.4,0000.0,0004.28,0000.75,0000.43
2021-12-22 07:09:00,,0822.4,5.00,0.00,23.8,23.0,00.0,32.9,25.4,03.5,0000.0,0004.38,0000.76,0000.44
2021-12-22 07:10:00,,0822.4,5.01,0.00,23.7,23.0,00.0,32.8,25.4,03.4,0000.0,0004.47,0000.76,0000.44
2021-12-22 07:11:00,,0822.4,4.99,0.00,23.7,22.9,00.0,32.8,25.4,03.4,0000.0,0004.54,0000.75,0000.45
2021-12-22 07:12:00,,0822.4,4.99,0.00,23.7,22.9,00.0,32.8,25.4,03.4,0000.0,0004.50,0000.74,0000.45
2021-12-22 07:13:00,,0822.4,5.01,0.00,23.7,22.9,00.0,32.8,25.3,03.4,0000.0,0003.86,0000.71,0000.44
2021-12-22 07:14:00,,0822.4,5.01,0.00,23.7,22.9,00.0,32.8,25.3,03.4,0000.0,0002.68,0000.66,0000.45
2021-12-22 07:15:00,,0822.4,4.99,0.00,23.6,22.9,00.0,32.8,25.3,03.4,0000.0,0001.53,0000.66,0000.45
2021-12-22 07:16:00,,0822.4,5.00,0.00,23.6,22.8,00.0,32.7,25.3,03.4,0000.0,0001.62,0000.68,0000.44
2021-12-22 07:17:00,,0822.4,4.99,0.00,23.6,22.8,00.0,32.7,25.2,03.4,0000.0,0002.01,0000.69,0000.43
2021-12-22 07:18:00,,0822.5,5.00,0.00,23.6,22.8,00.0,32.7,25.2,03.4,0000.0,0002.32,0000.65,0000.42
2021-12-22 07:19:00,,0822.5,4.99,0.00,23.6,22.8,00.0,32.7,25.2,03.4,0000.0,0002.13,0000.62,0000.40
2021-12-22 07:20:00,,0822.5,5.01,0.00,23.6,22.8,00.0,32.7,25.2,03.5,0000.0,0001.99,0000.58,0000.39
2021-12-22 07:21:00,,0822.4,4.98,0.00,23.6,22.8,00.0,32.7,25.2,03.6,0000.0,0001.88,0000.58,0000.39
2021-12-22 07:22:00,,0822.5,5.01,0.00,23.6,22.8,00.0,32.7,25.3,03.6,0000.0,0001.78,0000.59,0000.41
2021-12-22 07:23:00,,0822.5,5.00,0.00,23.6,22.8,00.0,32.7,25.2,03.5,0000.0,0001.76,0000.59,0000.43
2021-12-22 07:24:00,,0822.6,5.00,0.00,23.6,22.8,00.0,32.7,25.3,03.6,0000.0,0001.76,0000.59,0000.43
2021-12-22 07:25:00,,0822.6,5.01,0.00,23.6,22.8,00.0,32.7,25.3,03.5,0000.0,0001.88,0000.60,0000.43
2021-12-22 07:26:00,,0822.6,4.99,0.00,23.6,22.8,00.0,32.7,25.3,03.4,0000.0,0001.89,0000.62,0000.44
2021-12-22 07:27:00,,0822.7,5.01,0.00,23.6,22.8,00.0,32.6,25.2,03.4,0000.0,0001.80,0000.60,0000.43
2021-12-22 07:28:00,,0822.6,5.00,0.00,23.6,22.8,00.0,32.6,25.2,03.4,0000.0,0001.36,0000.58,0000.43
2021-12-22 07:29:00,,0822.5,4.99,0.00,23.6,22.8,00.0,32.6,25.2,03.4,0000.0,0000.98,0000.59,0000.44
2021-12-22 07:30:00,,0822.4,4.98,0.00,23.6,22.8,00.0,32.6,25.2,03.3,0000.0,0001.00,0000.60,0000.44
2021-12-22 07:31:00,,0822.4,5.02,0.00,23.6,22.8,00.0,32.6,25.2,03.4,0000.0,0000.96,0000.58,0000.44
2021-12-22 07:32:00,,0822.4,4.99,0.00,23.6,22.8,00.0,32.6,25.2,03.4,0000.0,0000.97,0000.58,0000.42
2021-12-22 07:33:00,,0822.4,5.01,0.00,23.5,22.8,00.0,32.6,25.2,03.4,0000.0,0001.75,0000.57,0000.39
2021-12-22 07:34:00,,0822.4,4.99,0.00,23.5,22.8,00.0,32.6,25.2,03.4,0000.0,0001.94,0000.57,0000.38
2021-12-22 07:35:00,,0822.4,5.01,0.00,23.5,22.8,00.0,32.6,25.2,03.4,0000.0,0002.07,0000.58,0000.37
2021-12-22 07:36:00,,0822.4,4.99,0.00,23.5,22.8,00.0,32.6,25.1,03.4,0000.0,0001.96,0000.56,0000.35
2021-12-22 07:37:00,,0822.5,5.01,0.00,23.5,22.8,00.0,32.6,25.1,03.4,0000.0,0001.91,0000.53,0000.34
2021-12-22 07:38:00,,0822.4,4.98,0.00,23.5,22.8,00.0,32.6,25.1,03.4,0000.0,0002.01,0000.55,0000.35
2021-12-22 07:39:00,,0822.4,5.01,0.00,23.5,22.8,00.0,32.5,25.1,03.4,0000.0,0002.33,0000.57,0000.35
2021-12-22 07:40:00,,0822.4,5.00,0.00,23.5,22.8,00.0,32.5,25.2,03.4,0000.0,0002.32,0000.57,0000.35
2021-12-22 07:41:00,,0822.3,5.01,0.00,23.5,22.8,00.0,32.5,25.2,03.4,0000.0,0002.37,0000.59,0000.36
2021-12-22 07:42:00,,0822.4,5.00,0.00,23.5,22.8,00.0,32.5,25.2,03.4,0000.0,0002.59,0000.60,0000.35
2021-12-22 07:43:00,,0822.4,5.00,0.00,23.5,22.8,00.0,32.5,25.2,03.4,0000.0,0002.52,0000.57,0000.35
2021-12-22 07:44:00,,0822.4,5.01,0.00,23.5,22.8,00.0,32.5,25.2,03.4,0000.0,0001.79,0000.56,0000.35
2021-12-22 07:45:00,,0822.4,4.98,0.00,23.5,22.8,00.0,32.5,25.2,03.4,0000.0,0001.96,0000.55,0000.35
2021-12-22 07:46:00,,0822.4,5.00,0.00,23.5,22.8,00.0,32.5,25.2,03.4,0000.0,0001.79,0000.52,0000.35
2021-12-22 07:47:00,,0822.3,5.01,0.00,23.5,22.8,00.0,32.5,25.2,03.4,0000.0,0001.74,0000.51,0000.35
2021-12-22 07:48:00,,0822.3,4.99,0.00,23.5,22.8,00.0,32.5,25.2,03.4,0000.0,0001.75,0000.53,0000.35
2021-12-22 07:49:00,,0822.4,5.01,0.00,23.5,22.8,00.0,32.5,25.3,03.4,0000.0,0001.86,0000.51,0000.35
2021-12-22 07:50:00,,0822.4,4.99,0.00,23.5,22.8,00.0,32.5,25.3,03.4,0000.0,0001.85,0000.49,0000.35
2021-12-22 07:51:00,,0822.4,4.99,0.00,23.6,22.9,00.0,32.5,25.3,03.4,0000.0,0002.27,0000.50,0000.35
2021-12-22 07:52:00,,0822.4,5.01,0.00,23.6,22.9,00.0,32.5,25.3,03.4,0000.0,0002.42,0000.51,0000.35
2021-12-22 07:53:00,,0822.4,5.00,0.00,23.6,22.9,00.0,32.5,25.3,03.4,0000.0,0002.40,0000.53,0000.35
2021-12-22 07:54:00,,0822.4,4.99,0.00,23.6,22.9,00.0,32.5,25.4,03.4,0000.0,0002.46,0000.55,0000.35
2021-12-22 07:55:00,,0822.4,5.00,0.00,23.6,23.0,00.0,32.5,25.5,03.4,0000.0,0002.48,0000.55,0000.34
2021-12-22 07:56:00,,0822.4,4.99,0.00,23.6,23.0,00.0,32.5,25.5,03.4,0000.0,0002.12,0000.54,0000.34
2021-12-22 07:57:00,,0822.4,5.00,0.00,23.7,23.0,00.0,32.6,25.5,03.4,0000.0,0002.15,0000.56,0000.34
2021-12-22 07:58:00,,0822.4,4.99,0.00,23.7,23.0,00.0,32.6,25.5,03.4,0000.0,0002.14,0000.55,0000.34
2021-12-22 07:59:00,,0822.3,5.01,0.00,23.7,23.1,00.0,32.6,25.5,03.4,0000.0,0002.10,0000.53,0000.34
